Date,TemperatureHighF,TemperatureAvgF,TemperatureLowF,DewpointHighF,DewpointAvgF,DewpointLowF,HumidityHigh,HumidityAvg,HumidityLow,PressureMaxIn,PressureMinIn,WindSpeedMaxMPH,WindSpeedAvgMPH,GustSpeedMaxMPH,PrecipitationSumIn
2013-1-11,72.5,63.8,63.7,62.5,56.5,-99.9,94,84,73,29.95,29.91,2,-33,0,0.00
2013-1-12,80.2,65.4,54.3,63.3,58.9,54.0,99,82,51,29.95,29.85,4,1,0,0.00
2013-1-13,77.0,65.6,57.0,63.1,60.2,56.7,99,84,60,29.95,29.84,4,1,0,0.00
2013-1-14,78.8,67.6,58.8,63.5,60.1,57.2,99,78,57,29.95,29.86,5,1,0,0.00
2013-1-15,76.1,66.6,57.4,60.7,59.3,57.1,99,79,56,29.94,29.80,5,1,0,0.00
2013-1-16,75.6,67.0,62.1,66.0,61.7,58.6,99,84,65,29.84,29.75,7,1,0,0.00
2013-1-17,71.1,57.0,43.0,65.2,54.7,38.3,99,92,78,30.04,29.56,7,2,0,0.41
2013-1-18,54.3,42.6,32.9,38.2,30.5,22.6,99,67,29,30.34,30.04,5,2,0,0.00
2013-1-19,61.2,43.6,32.4,40.3,31.1,24.3,91,63,36,30.32,30.01,5,1,0,0.00
2013-1-20,66.2,48.2,36.1,40.2,37.4,33.6,99,72,34,30.01,29.85,5,1,0,0.00
2013-1-21,63.9,48.5,33.4,38.7,33.1,23.4,99,61,26,29.90,29.78,5,1,0,0.00
2013-1-22,52.3,42.3,34.3,23.7,20.4,18.0,57,42,27,30.08,29.87,5,1,0,0.00
2013-1-23,55.4,40.5,27.5,32.4,24.9,17.4,77,55,35,30.16,29.94,5,1,0,0.00
2013-1-24,64.9,50.6,34.0,42.4,30.7,9.4,79,51,21,30.21,29.86,7,3,0,0.00
2013-1-25,38.7,33.4,27.5,25.1,16.1,9.1,60,49,37,30.24,29.89,6,1,0,0.00
2013-1-26,61.7,46.1,34.7,36.8,31.8,25.3,80,59,36,30.07,29.87,5,0,0,0.00
2013-1-27,54.7,43.4,32.5,31.8,28.5,24.7,82,58,36,30.27,30.07,7,2,0,0.00
2013-1-28,63.9,47.7,39.9,49.3,40.5,29.5,98,77,59,30.20,30.02,4,1,0,0.00
2013-1-29,77.4,59.2,42.6,61.5,53.6,42.3,99,84,56,30.01,29.80,5,1,0,0.00
2013-1-30,80.4,67.5,50.7,65.8,61.2,48.5,98,82,52,29.79,29.28,9,4,0,0.38
2013-1-31,53.4,45.5,38.5,48.3,29.3,22.5,90,55,30,29.93,29.47,8,3,0,0.00
2013-2-1,51.6,42.1,29.7,30.2,21.3,8.2,65,47,19,30.12,29.88,7,2,0,0.00
2013-2-2,57.0,40.3,26.1,36.0,19.2,11.7,68,46,20,30.14,29.85,4,1,0,0.00
2013-2-3,61.3,47.9,37.4,38.3,33.0,26.5,87,60,32,29.85,29.68,8,2,0,0.00
2013-2-4,52.5,41.3,31.5,33.2,28.9,25.5,92,64,36,29.91,29.79,3,0,0,0.00
2013-2-5,66.9,49.3,33.6,47.9,40.0,31.4,97,73,44,29.82,29.73,6,1,0,0.00
2013-2-6,71.4,53.7,39.9,50.3,40.0,29.8,99,67,25,29.94,29.79,4,1,0,0.00
2013-2-7,50.5,47.9,44.8,49.0,45.4,35.8,99,92,57,29.94,29.62,13,2,0,3.08
2013-2-8,61.9,49.3,42.1,50.2,45.9,41.8,99,89,63,29.88,29.62,5,1,0,0.01
2013-2-9,63.3,46.4,30.9,44.8,31.8,23.8,99,62,24,30.09,29.88,5,1,0,0.00
2013-2-10,66.6,52.6,39.0,55.9,42.6,29.3,99,70,50,30.17,29.91,6,2,0,0.22
2013-2-11,68.4,59.3,54.5,64.2,58.7,54.2,99,98,85,29.98,29.82,4,1,0,1.23
2013-2-12,65.8,55.1,48.6,54.2,50.0,41.6,99,86,42,29.90,29.65,4,1,0,0.95
2013-2-13,57.7,50.6,45.5,55.6,48.8,42.2,99,94,77,29.69,29.49,6,2,0,0.07
2013-2-14,54.3,44.2,36.1,42.5,38.9,35.8,99,83,57,29.87,29.67,3,1,0,0.00
2013-2-15,63.3,45.9,32.0,43.4,36.4,31.8,99,75,32,29.91,29.74,4,1,0,0.00
2013-2-16,48.0,40.8,32.7,40.2,31.5,15.1,98,73,35,29.85,29.63,9,2,0,0.15
2013-2-17,47.1,35.3,26.4,20.8,15.5,9.5,74,47,23,30.09,29.86,6,2,0,0.00
2013-2-18,57.4,40.6,25.3,27.8,22.6,17.9,81,53,26,30.20,30.02,4,1,0,0.00
2013-2-19,53.1,44.9,38.3,51.3,41.5,28.1,99,88,61,30.02,29.78,4,1,0,0.29
2013-2-20,58.1,43.2,28.0,36.2,28.9,21.1,99,63,25,29.97,29.84,5,1,0,0.00
2013-2-21,66.0,49.1,33.1,37.9,29.8,22.5,80,51,25,30.00,29.84,5,1,0,0.00
2013-2-22,50.7,43.3,39.7,42.9,40.0,32.6,99,90,52,29.98,29.86,5,2,0,0.64
2013-2-23,46.0,43.1,39.0,45.7,42.8,38.7,99,99,99,29.86,29.62,4,1,0,0.71
2013-2-24,68.4,52.5,43.7,49.2,43.6,37.6,99,77,33,29.78,29.65,5,1,0,0.00
2013-2-25,48.6,45.2,39.6,43.7,36.6,30.8,96,73,52,29.87,29.73,9,2,0,0.00
2013-2-26,58.1,47.3,38.3,56.0,46.5,38.0,99,97,89,29.73,29.35,6,2,0,0.51
2013-2-27,61.3,49.2,39.9,45.7,40.0,36.9,99,73,45,29.66,29.52,5,2,0,0.00
2013-2-28,55.4,46.8,39.2,41.1,34.0,28.0,87,63,44,29.70,29.56,5,2,0,0.00
2013-3-1,55.0,42.7,30.9,34.3,29.6,27.0,88,62,39,29.75,29.63,4,1,0,0.00
2013-3-2,46.6,37.8,29.5,41.7,32.7,28.0,98,82,65,29.73,29.64,5,1,0,0.04
2013-3-3,48.6,37.8,28.4,29.0,25.7,22.4,95,64,37,29.81,29.67,6,1,0,0.00
2013-3-4,58.1,40.7,24.4,33.3,23.7,16.9,95,56,20,29.97,29.80,5,1,0,0.00
2013-3-5,68.7,52.7,36.9,56.9,43.1,31.7,98,71,50,29.86,29.45,7,2,0,0.04
2013-3-6,50.9,42.4,35.2,36.7,26.9,22.0,76,55,40,29.90,29.54,9,4,0,0.00
2013-3-7,60.4,42.8,27.9,34.1,30.3,26.6,96,65,34,30.02,29.91,5,1,0,0.00
2013-3-8,62.2,46.3,34.3,33.3,26.5,19.2,76,50,19,30.09,29.95,8,2,0,0.00
2013-3-9,67.1,49.8,36.9,37.1,30.5,25.9,72,50,25,30.12,29.99,5,1,0,0.00
2013-3-10,71.2,54.9,39.6,48.3,40.7,35.3,88,63,29,30.06,29.91,7,1,0,0.00
2013-3-11,71.2,59.0,46.0,55.8,48.3,38.8,81,68,51,29.95,29.60,7,2,0,0.00
2013-3-12,70.5,60.5,53.1,58.9,50.7,36.9,99,74,39,29.76,29.53,5,2,0,0.29
2013-3-13,63.3,51.4,38.5,36.5,29.8,22.5,81,47,23,29.95,29.77,10,2,0,0.00
2013-3-14,57.4,43.3,29.8,30.3,22.9,18.9,73,47,25,30.11,29.95,6,1,0,0.00
2013-3-15,73.8,51.9,32.2,40.5,33.0,21.7,86,53,29,30.02,29.77,6,1,0,0.00
2013-3-16,79.7,64.3,51.3,45.7,42.8,39.9,74,48,26,29.81,29.62,8,2,0,0.00
2013-3-17,76.1,63.5,52.2,54.2,50.4,44.8,90,64,40,29.80,29.70,5,1,0,0.00
2013-3-18,69.3,59.1,48.2,61.2,54.7,47.7,99,86,72,29.83,29.58,7,1,0,0.92
2013-3-19,74.8,57.8,49.3,52.8,42.2,23.2,99,66,16,29.81,29.62,6,1,0,0.02
2013-3-20,63.5,52.8,44.4,33.2,25.3,19.0,55,36,19,29.90,29.62,4,1,0,0.00
2013-3-21,57.6,46.3,36.9,28.0,20.2,11.3,61,38,19,29.73,29.60,6,2,0,0.00
2013-3-22,52.3,42.7,34.2,34.1,23.1,16.5,67,47,32,29.87,29.73,3,1,0,0.00
2013-3-23,55.4,47.2,43.5,52.1,43.2,34.2,99,86,64,29.84,29.67,6,1,0,0.43
2013-3-24,49.3,47.3,44.8,49.0,46.8,44.5,99,98,95,29.68,29.33,7,2,0,1.47
2013-3-25,53.4,44.8,38.5,45.6,29.9,22.6,99,58,34,29.79,29.40,8,4,0,0.00
2013-3-26,51.6,40.8,31.5,28.5,25.9,22.9,78,56,38,30.02,29.78,9,2,0,0.00
2013-3-27,63.0,42.4,27.7,32.3,27.2,24.1,93,59,25,30.11,29.99,4,1,0,0.00
2013-3-28,66.2,45.6,30.7,33.8,26.8,22.4,90,53,20,30.14,30.00,7,1,0,0.00
2013-3-29,70.7,52.5,37.8,36.0,28.8,23.4,69,43,21,30.15,29.99,4,1,0,0.00
2013-3-30,75.7,61.2,49.8,48.5,43.9,34.0,81,55,35,30.02,29.84,5,1,0,0.00
2013-3-31,76.5,64.3,57.2,60.8,55.0,48.1,94,73,45,29.84,29.66,6,2,0,0.01
2013-4-1,80.8,64.0,53.1,61.4,54.7,40.6,99,77,28,29.77,29.66,4,1,0,0.58
2013-4-2,77.9,58.7,43.7,48.3,42.4,34.7,96,61,27,29.94,29.77,5,1,0,0.00
2013-4-3,65.3,56.2,48.0,45.1,35.6,29.0,76,47,32,30.03,29.88,7,1,0,0.00
2013-4-4,51.4,45.2,41.0,45.0,43.0,39.6,99,93,64,29.99,29.73,6,2,0,0.71
2013-4-5,60.1,47.4,38.5,47.7,42.7,38.2,99,85,62,29.83,29.68,5,2,0,0.00
2013-4-6,77.0,57.9,39.7,43.1,39.1,33.3,99,58,22,30.00,29.83,5,1,0,0.00
2013-4-7,80.4,61.1,45.5,54.7,49.0,41.7,99,68,38,30.05,29.89,4,1,0,0.00
2013-4-8,82.8,66.7,52.9,58.0,54.7,52.1,99,69,38,29.99,29.87,4,1,0,0.00
2013-4-9,86.9,69.6,55.8,63.4,58.4,55.5,99,72,39,30.01,29.90,4,1,0,0.00
2013-4-10,87.6,71.9,58.1,62.5,59.7,56.8,99,70,38,29.94,29.75,8,1,0,0.00
2013-4-11,84.6,70.6,61.2,68.6,65.5,60.3,99,85,57,29.77,29.54,4,1,0,0.06
2013-4-12,82.6,70.7,57.6,70.7,61.2,46.1,99,76,30,29.64,29.47,4,1,0,0.14
2013-4-13,83.3,64.0,46.8,45.5,43.2,38.9,88,50,23,29.80,29.63,4,1,0,0.00
2013-4-14,72.0,60.1,50.5,60.7,53.3,45.2,99,80,53,29.87,29.62,5,1,0,0.24
2013-4-15,77.0,66.4,59.9,64.1,61.4,59.3,99,85,61,29.94,29.72,3,1,0,0.00
2013-4-16,86.4,69.7,59.7,63.2,61.0,59.4,99,77,43,30.05,29.94,6,0,0,0.00
2013-4-17,88.2,69.3,57.0,63.5,60.2,56.4,98,76,43,30.01,29.88,3,0,0,0.00
2013-4-18,85.1,72.5,61.9,66.8,62.4,57.7,98,72,48,29.93,29.75,4,1,0,0.00
2013-4-19,84.7,69.6,51.4,69.9,65.1,50.6,98,87,57,29.78,29.60,6,2,0,0.36
2013-4-20,71.2,54.8,45.0,50.6,43.0,35.3,98,70,28,30.03,29.73,5,1,0,0.01
2013-4-21,73.0,57.1,42.8,44.5,42.2,37.4,99,63,32,30.15,30.04,7,2,0,0.00
2013-4-22,72.7,58.4,50.0,44.6,36.9,32.1,72,47,26,30.11,29.96,9,2,0,0.00
2013-4-23,78.6,60.0,47.7,52.3,46.2,36.8,83,62,36,30.02,29.89,6,1,0,0.00
2013-4-24,81.5,67.0,54.0,59.8,56.7,52.3,97,72,44,29.96,29.83,4,1,0,0.00
2013-4-25,83.1,71.6,55.4,61.5,53.4,41.2,92,56,24,30.03,29.88,5,1,0,0.00
2013-4-26,79.5,64.4,50.4,57.5,49.4,38.4,89,60,37,30.18,30.02,6,1,0,0.00
2013-4-27,71.1,61.3,54.0,58.4,53.8,48.4,96,77,59,30.14,29.99,4,1,0,0.25
2013-4-28,74.8,64.1,56.7,66.5,61.1,50.6,98,90,68,29.99,29.78,3,1,0,2.05
2013-4-29,73.9,65.5,60.3,67.5,63.1,59.4,99,92,74,29.85,29.72,2,0,0,0.79
2013-4-30,79.7,65.3,57.0,65.6,61.4,56.4,99,88,59,29.90,29.73,5,0,0,0.00
2013-5-1,71.6,63.7,58.8,60.8,58.1,56.2,98,83,63,29.99,29.88,5,2,0,0.00
2013-5-2,70.9,65.1,61.2,61.8,59.7,57.1,93,83,72,29.98,29.90,10,2,0,0.00
2013-5-3,67.6,61.3,57.0,61.3,57.6,54.9,95,88,76,29.91,29.80,7,2,0,0.03
2013-5-4,61.9,58.4,53.8,58.4,53.8,47.8,97,85,69,29.80,29.64,7,2,0,0.25
2013-5-5,75.6,61.4,54.7,66.5,59.0,53.5,99,92,66,29.65,29.55,5,1,0,1.43
2013-5-6,72.9,59.0,50.2,54.6,50.8,48.5,99,77,46,29.73,29.60,4,1,0,0.00
2013-5-7,76.1,60.5,50.2,56.4,51.8,48.3,96,76,46,29.77,29.66,4,1,0,0.01
2013-5-8,84.4,65.1,48.9,57.7,53.4,48.1,99,71,37,29.83,29.72,4,1,0,0.00
2013-5-9,89.6,69.6,54.9,61.4,57.1,53.8,98,70,35,29.89,29.79,3,0,0,0.00
2013-5-10,91.9,72.9,58.3,64.4,60.0,57.2,97,68,35,29.89,29.73,5,1,0,0.00
2013-5-11,84.7,73.1,62.2,67.2,63.3,59.2,90,73,54,29.79,29.65,4,1,0,0.00
2013-5-12,85.3,70.5,58.3,64.2,52.7,35.9,93,58,28,29.84,29.64,6,1,0,0.00
2013-5-13,78.3,61.7,48.2,45.1,39.2,32.4,74,47,22,29.96,29.82,9,1,0,0.00
2013-5-14,85.1,64.2,47.1,47.6,40.3,35.1,70,45,18,30.06,29.92,3,1,0,0.00
2013-5-15,96.4,72.0,54.7,61.7,55.1,45.7,83,59,31,29.94,29.78,4,1,0,0.00
2013-5-16,86.9,73.5,61.3,65.8,61.5,57.9,90,68,45,29.87,29.77,2,0,0,0.00
2013-5-17,95.2,74.4,60.4,66.0,61.8,58.9,97,69,32,29.91,29.80,3,0,0,0.00
2013-5-18,86.2,73.1,66.0,67.9,64.8,59.9,90,76,54,29.93,29.84,3,0,0,0.00
2013-5-19,83.5,73.0,66.7,70.0,67.2,64.6,94,83,60,29.91,29.82,3,0,0,0.00
2013-5-20,91.2,76.9,67.8,70.9,68.2,66.0,95,77,49,29.89,29.79,3,0,0,0.00
2013-5-21,95.7,73.1,65.1,72.5,68.2,64.2,97,87,44,29.84,29.71,4,0,0,0.82
2013-5-22,91.4,73.8,63.1,72.0,66.4,62.5,99,80,47,29.80,29.66,4,0,0,0.00
2013-5-23,87.8,75.5,67.3,70.0,66.1,60.2,96,75,43,29.74,29.64,4,1,0,0.00
2013-5-24,86.9,72.0,60.4,61.7,49.4,31.5,86,50,17,29.96,29.68,11,2,0,0.00
2013-5-25,85.8,66.2,49.5,53.2,44.2,38.3,81,50,19,30.10,29.96,4,1,0,0.00
2013-5-26,90.3,69.9,53.8,56.1,51.3,46.4,89,57,24,30.04,29.93,3,1,0,0.00
2013-5-27,95.2,74.8,58.8,62.0,57.5,52.7,87,58,30,30.02,29.91,3,0,0,0.00
2013-5-28,93.6,75.4,61.9,66.9,61.8,56.8,94,66,38,30.01,29.92,4,1,0,0.00
2013-5-29,95.4,75.6,61.5,66.5,62.4,59.8,96,67,38,30.03,29.92,4,1,0,0.00
2013-5-30,93.9,76.6,62.8,69.4,64.7,60.8,97,70,39,30.04,29.90,3,0,0,0.00
2013-5-31,95.7,78.6,68.0,71.0,67.7,62.7,95,72,39,30.02,29.87,4,1,0,0.00
2013-6-1,96.1,78.2,65.7,70.5,66.7,64.0,97,71,42,29.92,29.78,4,1,0,0.00
2013-6-2,96.6,78.5,68.5,73.8,69.0,65.9,95,76,40,29.85,29.63,4,1,0,0.44
2013-6-3,92.7,77.7,70.7,73.8,71.4,68.5,98,83,49,29.73,29.62,3,0,0,0.92
2013-6-4,96.6,77.0,68.5,72.4,69.8,67.6,98,81,42,29.82,29.70,4,0,0,0.03
2013-6-5,83.7,73.2,68.9,74.7,70.7,67.4,98,92,73,29.83,29.70,6,0,0,1.64
2013-6-6,79.9,72.3,69.6,73.7,70.4,68.9,99,94,79,29.73,29.50,4,0,0,1.37
2013-6-7,88.2,73.9,68.4,74.7,70.3,67.8,98,89,63,29.64,29.34,5,1,0,2.08
2013-6-8,90.1,75.9,68.9,71.2,68.9,67.4,98,81,52,29.88,29.61,3,1,0,0.00
2013-6-9,89.4,73.4,69.8,75.6,70.4,67.8,99,91,62,29.92,29.82,4,0,0,1.89
2013-6-10,82.9,73.8,71.2,76.1,72.3,69.6,99,95,80,29.88,29.82,3,1,0,0.77
2013-6-11,93.2,83.3,75.7,77.1,73.9,73.0,92,75,57,29.79,29.71,4,1,0,0.00
2013-6-12,102.4,83.0,70.2,77.3,73.2,69.3,99,76,40,29.80,29.70,3,0,0,0.00
2013-6-13,99.9,84.6,74.3,75.9,73.2,70.7,95,71,42,29.72,29.49,5,1,0,0.00
2013-6-14,92.7,79.1,69.8,71.5,62.9,56.0,93,61,31,29.79,29.54,6,2,0,0.00
2013-6-15,94.5,76.7,63.1,65.3,60.9,55.7,88,61,31,29.91,29.79,3,0,0,0.00
2013-6-16,91.9,77.6,64.6,70.8,65.6,60.1,91,69,45,29.94,29.79,3,1,0,0.00
2013-6-17,98.4,76.6,69.3,75.6,69.0,63.9,99,79,43,29.87,29.73,4,1,0,1.18
2013-6-18,86.5,75.7,69.1,76.9,71.9,68.2,99,89,72,29.80,29.62,4,1,0,0.26
2013-6-19,83.1,75.1,68.9,74.6,71.5,65.8,98,89,72,29.87,29.68,5,0,0,0.31
2013-6-20,92.1,76.3,66.9,68.6,65.5,62.3,95,72,39,29.98,29.85,7,2,0,0.00
2013-6-21,91.8,75.8,64.6,64.9,62.3,60.3,93,66,38,30.02,29.91,5,1,0,0.00
2013-6-22,92.1,77.4,66.9,74.2,67.1,60.5,94,72,47,29.98,29.89,4,1,0,0.04
2013-6-23,89.2,76.2,68.9,76.8,71.6,67.7,97,87,59,29.99,29.91,3,0,0,0.45
2013-6-24,93.0,76.4,70.3,76.0,71.7,69.4,98,86,55,30.02,29.90,3,0,0,0.07
2013-6-25,95.4,76.9,68.5,75.5,70.8,67.6,98,84,51,29.97,29.83,3,0,0,0.00
2013-6-26,93.6,75.4,70.0,78.6,72.1,69.0,97,90,61,29.87,29.73,4,0,0,1.06
2013-6-27,93.2,80.1,71.6,77.6,73.9,70.0,99,83,59,29.77,29.56,4,1,0,0.00
2013-6-28,97.7,81.7,70.7,78.5,72.6,66.9,96,76,51,29.61,29.44,4,1,0,0.00
2013-6-29,89.6,78.5,72.1,75.0,71.1,66.6,90,79,62,29.53,29.47,3,1,0,0.00
2013-6-30,91.2,76.7,69.6,76.9,72.2,68.1,96,87,60,29.64,29.50,4,0,0,0.23
2013-7-1,83.7,74.7,68.4,74.6,70.9,67.5,97,89,71,29.76,29.57,3,0,0,0.51
2013-7-2,82.6,75.8,71.8,73.7,71.4,69.7,93,87,73,29.90,29.76,3,1,0,0.00
2013-7-3,85.3,75.0,71.1,75.6,72.2,69.4,97,91,72,29.95,29.87,3,0,0,1.56
2013-7-4,88.5,78.1,71.4,76.4,73.9,70.5,99,88,66,29.95,29.88,4,1,0,0.57
2013-7-5,90.0,77.8,71.6,77.4,73.6,69.8,97,88,64,29.98,29.91,3,0,0,0.19
2013-7-6,88.5,76.7,71.1,76.3,73.1,69.6,98,89,66,29.97,29.87,4,0,0,0.13
2013-7-7,94.5,78.5,72.7,77.7,74.0,71.8,98,87,58,29.95,29.83,3,0,0,0.16
2013-7-8,96.1,77.4,72.3,76.8,73.0,71.0,96,87,54,29.97,29.90,4,0,0,0.00
2013-7-9,94.8,80.1,72.3,78.2,74.3,71.1,97,84,57,29.96,29.85,4,0,0,0.18
2013-7-10,92.7,77.8,72.0,77.2,73.1,70.5,97,86,61,29.90,29.75,3,1,0,0.81
2013-7-11,94.1,78.2,72.5,76.4,72.5,70.0,96,84,55,29.76,29.64,3,1,0,0.28
2013-7-12,84.6,75.1,70.0,75.8,71.7,67.5,97,90,71,29.75,29.64,2,0,0,0.74
2013-7-13,79.9,73.7,69.3,73.0,70.2,65.7,95,89,76,29.84,29.73,4,1,0,0.14
2013-7-14,83.7,75.2,70.5,76.1,72.3,69.3,98,91,74,30.01,29.83,4,1,0,0.46
2013-7-15,91.2,77.0,72.0,76.3,72.9,71.1,98,88,61,30.05,29.98,6,1,0,0.04
2013-7-16,95.0,80.1,71.1,75.3,71.1,68.7,98,77,47,30.08,29.98,4,0,0,0.00
2013-7-17,98.6,77.6,70.7,77.3,71.4,67.4,96,83,47,30.02,29.90,11,0,0,0.55
2013-7-18,93.9,79.4,68.9,76.8,72.2,67.7,97,80,56,29.97,29.83,3,0,0,0.00
2013-7-19,97.0,80.1,71.2,74.5,71.4,67.2,95,77,44,29.91,29.77,4,0,0,0.00
2013-7-20,88.9,79.0,73.4,75.2,71.9,70.0,91,80,62,29.86,29.72,3,1,0,0.00
2013-7-21,92.7,79.5,74.3,76.8,72.8,71.0,90,81,60,29.83,29.70,3,0,0,0.00
2013-7-22,92.7,79.0,72.0,75.4,72.0,69.6,93,80,56,29.81,29.67,5,1,0,0.00
2013-7-23,93.9,80.8,74.3,75.0,72.0,70.2,89,76,52,29.72,29.57,5,1,0,0.00
2013-7-24,95.7,79.4,71.2,78.0,71.9,67.6,93,79,51,29.62,29.52,6,0,0,0.00
2013-7-25,92.1,79.6,69.8,74.3,70.7,67.7,94,76,54,29.78,29.57,4,0,0,0.00
2013-7-26,93.7,78.7,70.7,76.9,71.0,67.3,89,78,50,29.85,29.74,4,1,0,0.16
2013-7-27,87.6,78.4,73.2,77.4,72.8,69.3,94,83,66,29.79,29.64,3,0,0,0.05
2013-7-28,95.9,79.9,70.5,74.2,70.7,68.7,95,76,49,29.80,29.68,4,0,0,0.00
2013-7-29,93.4,79.5,71.6,76.4,72.3,69.2,94,80,58,29.92,29.78,3,0,0,0.02
2013-7-30,96.8,79.9,70.3,75.8,72.3,68.7,95,79,49,29.96,29.89,3,0,0,0.00
2013-7-31,84.2,75.6,72.5,76.0,72.2,69.8,95,89,73,29.93,29.77,2,0,0,0.63
2013-8-1,91.4,76.8,71.8,77.5,72.1,70.6,96,86,64,29.79,29.66,3,0,0,0.18
2013-8-2,91.2,78.8,72.7,78.2,73.2,70.9,94,84,64,29.83,29.70,2,0,0,0.00
2013-8-3,96.3,80.7,71.8,75.6,72.4,70.3,95,78,48,29.83,29.74,3,0,0,0.00
2013-8-4,97.9,81.3,72.7,75.6,72.5,69.5,93,76,46,29.80,29.70,4,0,0,0.00
2013-8-5,90.0,79.4,73.6,72.7,70.1,65.5,91,74,56,29.83,29.75,4,0,0,0.00
2013-8-6,87.4,77.6,70.0,75.5,69.9,65.1,88,78,68,29.84,29.74,2,0,0,0.00
2013-8-7,92.3,79.4,71.6,73.8,70.8,69.5,93,77,53,29.86,29.77,4,0,0,0.00
2013-8-8,97.3,81.0,70.3,73.9,70.7,67.9,94,73,46,29.85,29.78,3,0,0,0.00
2013-8-9,98.1,82.0,74.8,77.8,74.7,71.3,93,80,52,29.90,29.79,3,0,0,0.00
2013-8-10,99.3,83.0,73.2,76.7,73.0,71.2,94,74,47,29.93,29.83,3,1,0,0.00
2013-8-11,99.0,82.9,72.9,75.9,72.7,70.4,93,73,43,29.95,29.83,3,0,0,0.00
2013-8-12,99.5,82.6,73.4,77.6,73.6,71.2,94,76,45,29.88,29.74,4,0,0,0.00
2013-8-13,98.1,82.7,73.8,77.0,73.2,71.0,91,75,49,29.78,29.62,3,1,0,0.00
2013-8-14,83.7,77.1,71.2,72.9,69.6,65.3,91,79,62,29.83,29.65,5,1,0,0.00
2013-8-15,71.4,66.5,63.1,67.7,63.5,59.5,93,90,82,29.88,29.78,6,1,0,1.08
2013-8-16,66.4,64.9,63.7,64.6,62.9,62.1,96,93,88,29.89,29.80,6,1,0,2.94
2013-8-17,69.3,66.5,64.0,67.2,64.8,62.7,96,94,90,29.95,29.84,4,1,0,0.32
2013-8-18,88.9,74.4,67.8,76.0,70.0,66.6,97,87,66,29.98,29.88,4,0,0,0.59
2013-8-19,82.9,74.4,69.6,75.8,71.4,68.4,96,91,76,29.95,29.84,3,0,0,1.36
2013-8-20,85.3,76.0,72.1,77.2,72.7,70.6,95,90,73,29.96,29.86,6,0,0,0.11
2013-8-21,91.0,78.1,70.5,77.9,72.8,69.3,96,85,59,30.01,29.89,3,0,0,0.00
2013-8-22,93.2,80.2,69.8,75.0,71.5,67.2,93,77,50,29.96,29.80,3,0,0,0.00
2013-8-23,95.2,79.1,70.5,77.4,72.0,68.7,95,80,53,29.85,29.74,4,0,0,0.00
2013-8-24,82.2,74.3,69.4,70.6,68.4,66.0,91,82,68,30.03,29.81,7,1,0,0.00
2013-8-25,86.9,73.1,63.9,65.6,61.1,58.1,89,69,41,30.14,30.03,5,1,0,0.00
2013-8-26,88.5,71.4,60.3,63.3,58.5,55.5,86,67,36,30.09,29.91,6,1,0,0.00
2013-8-27,88.7,72.9,59.2,70.7,63.3,55.3,92,74,49,29.95,29.79,3,0,0,0.00
2013-8-28,93.0,77.1,65.7,72.8,68.2,63.9,94,76,47,29.83,29.71,3,0,0,0.00
2013-8-29,97.5,80.1,69.1,77.5,71.7,66.9,94,78,45,29.76,29.66,3,0,0,0.00
2013-8-30,88.7,79.2,73.9,75.0,71.9,69.8,89,79,61,29.81,29.71,4,1,0,0.00
2013-8-31,93.2,80.1,71.8,77.7,73.3,69.5,95,81,59,29.77,29.66,3,0,0,0.00
2013-9-1,93.9,79.5,72.1,79.7,73.6,70.3,95,83,58,29.73,29.60,3,0,0,1.05
2013-9-2,92.1,78.7,70.2,78.5,73.1,68.7,96,84,62,29.73,29.60,3,0,0,0.00
2013-9-3,90.1,78.7,71.6,79.4,73.1,69.5,95,84,63,29.76,29.62,3,0,0,0.09
2013-9-4,95.4,79.4,69.4,76.3,71.3,67.6,96,78,45,29.87,29.73,2,0,0,0.00
2013-9-5,95.2,80.0,70.5,72.5,70.0,66.6,96,75,41,29.89,29.80,3,0,0,0.00
2013-9-6,93.6,77.3,68.9,68.3,66.4,62.8,95,72,40,29.91,29.81,5,0,0,0.00
2013-9-7,91.0,75.7,65.8,69.0,64.7,60.7,85,71,44,29.90,29.77,3,0,0,0.00
2013-9-8,93.4,76.5,64.8,72.8,66.7,62.1,94,74,44,29.80,29.70,3,0,0,0.00
2013-9-9,94.1,78.9,67.3,71.4,67.3,64.2,94,70,39,29.91,29.76,6,0,0,0.00
2013-9-10,95.7,78.2,68.0,72.6,68.2,65.5,96,74,41,30.02,29.91,5,1,0,0.00
2013-9-11,93.0,76.7,65.1,70.0,65.7,61.8,96,72,36,30.01,29.87,4,0,0,0.00
2013-9-12,93.9,77.9,66.7,71.8,67.9,64.9,95,74,44,29.89,29.66,3,0,0,0.00
2013-9-13,94.1,79.0,70.0,70.9,66.5,62.0,93,69,36,29.67,29.54,5,1,0,0.00
2013-9-14,88.0,73.6,64.9,64.9,59.2,51.6,78,62,45,29.85,29.63,7,2,0,0.00
2013-9-15,94.3,76.0,65.7,72.9,66.9,59.8,83,74,46,29.94,29.84,4,1,0,0.00
2013-9-16,92.3,79.8,72.9,76.1,71.6,68.5,95,78,47,29.91,29.79,4,0,0,0.03
2013-9-17,81.3,73.5,66.0,70.7,63.5,58.6,95,72,51,30.02,29.87,6,2,0,0.00
2013-9-18,83.8,69.1,61.3,60.4,57.4,54.4,81,68,43,30.04,29.92,6,1,0,0.00
2013-9-19,85.6,70.4,58.3,63.6,58.8,55.1,90,69,42,29.96,29.84,4,0,0,0.00
2013-9-20,90.5,74.1,62.1,68.3,64.0,58.3,95,73,46,29.87,29.71,3,0,0,0.00
2013-9-21,83.7,73.6,65.8,70.5,67.6,63.7,95,82,64,29.74,29.48,3,0,0,0.30
2013-9-22,86.2,71.2,63.1,69.7,61.9,56.5,96,75,41,29.66,29.49,6,1,0,0.01
2013-9-23,85.1,69.3,60.1,63.8,58.8,56.1,93,71,42,29.83,29.65,5,1,0,0.00
2013-9-24,81.7,70.4,61.0,62.6,59.8,56.7,88,71,49,29.84,29.70,4,0,0,0.00
2013-9-25,76.5,67.7,63.3,63.1,61.6,60.4,95,82,59,29.70,29.61,5,1,0,0.71
2013-9-26,80.8,67.6,61.3,64.5,61.2,58.0,95,82,51,29.78,29.62,4,1,0,0.02
2013-9-27,81.0,66.9,56.8,58.7,56.1,53.7,91,70,41,29.92,29.77,7,1,0,0.00
2013-9-28,77.5,65.5,55.6,57.7,54.3,52.0,88,69,45,30.00,29.90,6,1,0,0.00
2013-9-29,77.5,65.0,56.7,59.5,55.3,52.1,86,72,48,29.92,29.80,5,1,0,0.00
2013-9-30,77.0,63.5,53.2,57.6,54.0,50.6,95,74,45,29.88,29.78,5,0,0,0.00
2013-10-1,82.9,66.9,55.0,61.3,56.6,52.5,97,73,41,29.94,29.83,5,0,0,0.00
2013-10-2,87.3,69.9,56.8,65.8,59.6,54.9,96,73,40,29.95,29.85,4,0,0,0.00
2013-10-3,88.0,71.0,59.5,63.2,60.2,57.8,96,72,39,29.94,29.84,3,0,0,0.00
2013-10-4,86.9,72.4,63.0,69.7,64.5,61.4,96,78,45,29.96,29.86,3,0,0,0.00
2013-10-5,89.6,73.2,61.5,66.9,63.0,59.8,97,74,41,29.92,29.81,5,0,0,0.00
2013-10-6,86.2,73.1,62.4,69.8,65.5,60.9,96,79,51,29.85,29.69,3,0,0,0.00
2013-10-7,79.0,74.5,69.1,74.3,71.9,68.2,97,92,84,29.74,29.59,3,0,0,0.97
2013-10-8,68.9,62.6,58.3,68.0,57.2,52.4,97,83,71,29.92,29.68,9,3,0,0.12
2013-10-9,74.5,63.4,57.0,56.2,53.2,50.6,84,71,48,29.96,29.86,7,2,0,0.00
2013-10-10,78.3,62.9,51.4,58.6,52.7,48.0,88,72,44,29.90,29.76,5,1,0,0.00
2013-10-11,83.3,67.4,56.7,61.5,57.8,53.0,91,74,45,29.80,29.70,4,0,0,0.00
2013-10-12,86.4,68.5,56.7,65.8,60.7,55.4,98,78,47,29.86,29.73,4,0,0,0.00
2013-10-13,76.6,70.2,65.3,65.7,62.9,60.5,85,78,67,29.97,29.85,5,1,0,0.00
2013-10-14,71.1,66.9,64.8,63.5,61.8,60.5,91,84,76,29.97,29.89,7,2,0,0.00
2013-10-15,76.5,66.2,59.2,61.2,57.5,54.3,88,75,49,29.93,29.81,5,2,0,0.00
2013-10-16,80.1,66.4,55.8,64.7,59.2,52.4,96,79,55,29.85,29.74,3,0,0,0.00
2013-10-17,83.8,71.7,63.0,68.7,64.5,60.4,95,79,57,29.77,29.66,3,0,0,0.00
2013-10-18,80.4,72.0,67.6,68.4,66.7,65.3,94,84,65,29.79,29.69,2,0,0,0.00
2013-10-19,77.7,68.8,62.1,67.5,60.5,53.5,95,76,49,29.75,29.68,7,0,0,0.00
2013-10-20,73.6,62.3,53.2,55.5,52.5,49.4,89,72,48,29.85,29.72,3,0,0,0.00
2013-10-21,73.8,61.1,52.5,59.1,53.7,49.0,90,78,54,29.92,29.80,4,0,0,0.00
2013-10-22,69.3,63.0,59.2,61.3,58.8,55.6,95,86,73,29.84,29.63,3,0,0,0.00
2013-10-23,72.3,61.1,48.9,61.1,48.2,31.5,96,68,23,29.86,29.57,5,1,0,0.00
2013-10-24,67.5,51.0,37.4,43.6,37.9,33.3,91,64,33,30.01,29.86,3,0,0,0.00
2013-10-25,60.8,50.1,42.4,43.0,37.8,33.0,84,65,37,30.16,29.96,6,1,0,0.00
2013-10-26,65.7,48.7,36.0,40.1,34.2,28.6,82,61,26,30.14,29.93,3,0,0,0.00
2013-10-27,75.6,55.4,41.0,55.7,45.9,37.7,91,73,44,29.95,29.87,3,0,0,0.00
2013-10-28,73.2,61.1,53.2,59.3,54.9,49.6,95,81,55,30.07,29.92,2,0,0,0.00
2013-10-29,79.2,61.6,50.9,58.7,53.4,49.2,96,77,46,30.14,30.04,4,0,0,0.00
2013-10-30,80.2,63.7,52.5,58.7,54.6,49.7,95,75,45,30.12,29.97,4,0,0,0.00
2013-10-31,80.1,66.7,54.0,65.9,59.8,52.3,96,80,58,29.99,29.75,4,0,0,0.00
2013-11-1,75.4,67.1,63.5,68.4,63.8,62.3,97,89,79,29.74,29.52,4,1,0,1.56
2013-11-2,72.5,60.8,50.5,62.6,52.6,44.8,97,78,39,29.78,29.55,6,1,0,0.00
2013-11-3,68.9,52.8,43.0,44.0,40.9,37.4,87,67,36,30.09,29.78,6,1,0,0.00
2013-11-4,64.9,51.4,43.0,39.9,37.0,31.7,82,61,32,30.27,30.10,8,1,0,0.00
2013-11-5,67.1,53.9,41.4,52.7,44.5,33.7,82,71,53,30.28,30.14,7,2,0,0.00
2013-11-6,77.9,61.1,51.1,60.4,53.7,47.2,92,78,54,30.15,29.90,5,1,0,0.00
2013-11-7,75.0,61.2,51.6,64.0,53.2,29.4,96,77,35,29.90,29.75,3,1,0,0.00
2013-11-8,64.2,51.3,40.5,34.2,30.0,22.5,74,48,21,30.10,29.91,5,1,0,0.00
2013-11-9,66.0,50.5,37.8,39.7,31.5,19.2,75,53,17,30.17,30.02,4,0,0,0.00
2013-11-10,71.4,54.7,46.0,43.0,38.2,25.7,75,58,18,30.06,29.95,3,0,0,0.00
2013-11-11,68.9,52.9,42.6,39.3,32.6,26.2,75,49,20,30.11,29.96,6,1,0,0.00
2013-11-12,75.4,51.5,37.9,42.1,33.6,24.9,84,56,20,30.19,29.83,12,2,0,0.00
2013-11-13,52.5,37.5,28.6,25.3,15.2,1.4,64,44,12,30.36,30.20,10,2,0,0.00
2013-11-14,65.3,41.9,25.7,31.0,18.0,-3.6,75,48,6,30.31,30.12,3,0,0,0.00
2013-11-15,65.1,53.7,39.9,51.1,43.2,31.5,81,68,56,30.13,29.95,3,0,0,0.00
2013-11-16,75.7,62.2,52.5,57.4,52.9,47.4,88,72,50,30.04,29.92,4,0,0,0.00
2013-11-17,73.4,63.6,54.5,64.3,58.2,50.3,89,83,68,29.96,29.75,2,0,0,0.00
2013-11-18,86.9,71.0,54.9,67.0,52.1,28.8,90,57,25,29.76,29.62,6,1,0,0.00
2013-11-19,65.3,52.4,45.1,30.9,23.4,11.4,54,35,12,29.99,29.76,8,2,0,0.00
2013-11-20,57.0,49.9,40.6,37.2,30.6,24.0,62,48,36,30.14,29.98,11,3,0,0.00
2013-11-21,59.9,53.9,49.1,47.1,42.3,36.3,78,65,55,30.20,30.12,5,2,0,0.00
2013-11-22,76.1,61.3,52.2,59.1,52.4,45.2,85,73,55,30.13,29.94,4,1,0,0.00
2013-11-23,64.4,60.2,50.5,59.3,51.2,17.7,89,75,24,29.95,29.83,4,1,0,0.00
2013-11-24,50.7,40.9,30.4,19.9,12.3,3.1,48,32,14,30.30,29.96,10,2,0,0.00
2013-11-25,52.5,39.5,27.1,24.2,10.8,-0.5,44,31,17,30.33,30.04,5,2,0,0.00
2013-11-26,67.1,53.3,42.4,64.2,46.3,24.1,91,78,44,30.04,29.36,5,2,0,0.98
2013-11-27,52.2,43.3,30.4,48.0,38.6,25.6,90,83,69,30.01,29.34,5,1,0,0.18
2013-11-28,50.9,34.9,25.0,28.4,23.3,19.3,84,66,31,30.28,30.02,5,1,0,0.00
2013-11-29,59.7,40.6,27.7,34.2,25.2,18.6,87,60,20,30.34,30.24,4,1,0,0.00
2013-11-30,52.7,43.2,33.1,33.4,27.8,22.8,66,55,37,30.36,30.12,7,2,0,0.00
2013-12-1,59.4,49.1,42.4,43.9,37.8,32.4,81,65,52,30.11,29.80,3,0,0,0.00
2013-12-2,66.2,51.9,45.3,42.2,40.5,38.2,85,67,36,29.79,29.62,6,1,0,0.00
2013-12-3,63.1,55.1,48.7,54.4,48.2,42.2,89,78,69,29.75,29.66,3,0,0,0.97
2013-12-4,70.3,61.2,56.7,61.7,57.2,53.5,91,87,73,29.87,29.73,3,0,0,0.33
2013-12-5,66.7,64.1,60.6,63.7,61.1,58.0,91,90,83,29.92,29.85,3,0,0,0.10
2013-12-6,78.6,68.5,61.2,65.8,61.6,58.5,91,80,64,29.92,29.82,5,1,0,0.01
2013-12-7,67.8,60.4,45.5,63.7,56.4,42.4,91,87,80,30.13,29.85,7,1,0,0.24
2013-12-8,45.5,43.1,40.6,42.4,40.1,37.9,90,89,87,30.16,30.04,6,2,0,0.21
2013-12-9,55.2,48.1,40.5,52.1,45.2,37.8,91,90,87,30.03,29.82,2,0,0,0.26
2013-12-10,65.3,55.3,39.9,62.6,49.0,27.6,91,80,58,30.13,29.74,7,2,0,0.11
2013-12-11,59.0,42.4,31.8,35.2,28.8,25.3,82,61,29,30.24,30.10,3,1,0,0.00
2013-12-12,57.6,41.0,32.5,32.9,25.2,14.4,87,59,18,30.21,30.08,5,1,0,0.00
2013-12-13,60.3,42.8,28.6,34.9,24.7,14.5,79,54,17,30.19,29.99,3,0,0,0.00
2013-12-14,62.8,53.6,46.2,60.1,47.0,34.9,91,79,64,30.00,29.60,4,1,0,1.54
2013-12-15,55.4,48.9,37.2,50.1,41.0,29.7,91,75,54,29.93,29.57,5,2,0,0.09
2013-12-16,63.0,42.8,30.0,33.8,30.1,26.3,88,65,27,30.02,29.92,4,0,0,0.00
2013-12-17,64.9,48.4,36.9,34.1,30.7,28.2,77,54,25,30.02,29.85,6,1,0,0.00
2013-12-18,57.9,44.8,34.2,32.3,24.0,10.6,68,47,15,30.11,29.88,5,1,0,0.00
2013-12-19,65.1,45.4,31.1,41.3,28.7,12.9,78,57,13,30.18,30.02,3,0,0,0.00
2013-12-20,72.0,54.6,43.2,53.7,46.6,39.7,90,76,49,30.06,29.95,4,0,0,0.00
2013-12-21,79.7,64.4,51.6,62.0,55.1,46.6,90,74,48,29.95,29.80,4,1,0,0.00
2013-12-22,77.0,70.4,64.6,65.6,63.7,61.6,90,80,67,29.88,29.80,5,2,0,0.58
2013-12-23,67.8,61.2,52.2,64.9,57.7,46.9,91,88,82,29.94,29.80,3,1,0,0.81
2013-12-24,57.6,45.2,36.3,46.6,30.9,16.6,87,61,22,30.17,29.93,7,2,0,0.01
2013-12-25,50.0,38.7,28.4,21.5,17.1,13.4,58,43,25,30.31,30.14,7,2,0,0.00
2013-12-26,53.2,43.0,36.9,37.6,30.6,18.6,83,63,39,30.14,30.03,4,1,0,0.00
2013-12-27,55.4,42.6,36.1,32.6,27.0,21.0,85,57,28,30.25,30.11,7,1,0,0.00
2013-12-28,56.8,43.7,32.9,41.1,29.3,22.9,88,60,27,30.20,29.85,6,1,0,0.20
2013-12-29,62.1,52.5,44.4,59.4,47.3,41.0,91,83,69,29.84,29.57,5,2,0,1.33
2013-12-30,57.0,47.4,39.0,44.5,40.8,36.0,90,78,60,29.95,29.76,4,0,0,0.00
2013-12-31,57.2,47.9,39.0,42.1,35.8,23.1,79,65,29,30.16,29.94,5,1,0,0.00
2014-1-1,52.0,44.8,36.7,40.0,35.5,30.2,81,70,57,30.18,29.94,2,0,0,0.00
2014-1-2,51.4,46.8,36.1,48.9,42.4,28.6,91,85,74,29.94,29.49,6,1,0,0.43